EN

Hourly Weather Bolshie Shapy

Today, 30 November, Monday

Time Temperature Precipitation Wind Pressure Humidity
00:00 -1°C° 0.1 mm 3 mps 771 mmHg 95%
01:00 -1°C° 0 mm 3 mps 771 mmHg 94%
02:00 -2°C° 0 mm 3 mps 771 mmHg 94%
03:00 -2°C° 0 mm 3 mps 771 mmHg 94%
04:00 -4°C° 0 mm 3 mps 771 mmHg 93%
05:00 -4°C° 0 mm 3 mps 771 mmHg 93%
06:00 -5°C° 0 mm 4 mps 771 mmHg 93%
07:00 -7°C° 0 mm 4 mps 771 mmHg 92%
08:00 -7°C° 0 mm 4 mps 771 mmHg 91%
09:00 -8°C° 0 mm 4 mps 772 mmHg 90%
10:00 -8°C° 0 mm 4 mps 771 mmHg 88%
11:00 -8°C° 0 mm 4 mps 771 mmHg 86%
12:00 -8°C° 0 mm 4 mps 771 mmHg 85%
13:00 -8°C° 0 mm 4 mps 771 mmHg 86%
14:00 -8°C° 0 mm 4 mps 771 mmHg 88%
15:00 -9°C° 0 mm 4 mps 771 mmHg 89%
16:00 -9°C° 0 mm 4 mps 771 mmHg 90%
17:00 -9°C° 0 mm 4 mps 771 mmHg 90%
18:00 -10°C° 0 mm 4 mps 771 mmHg 91%
19:00 -10°C° 0 mm 4 mps 771 mmHg 90%
20:00 -10°C° 0 mm 4 mps 771 mmHg 89%
21:00 -10°C° 0 mm 4 mps 771 mmHg 88%
22:00 -10°C° 0 mm 4 mps 771 mmHg 88%
23:00 -10°C° 0 mm 4 mps 770 mmHg 88%

Tomorrow, 1 December, Tuesday

Time Temperature Precipitation Wind Pressure Humidity
00:00 -10°C° 0 mm 4 mps 770 mmHg 88%
01:00 -10°C° 0 mm 4 mps 770 mmHg 88%
02:00 -10°C° 0 mm 4 mps 771 mmHg 88%
03:00 -10°C° 0 mm 4 mps 771 mmHg 87%
04:00 -10°C° 0 mm 4 mps 771 mmHg 88%
05:00 -11°C° 0 mm 4 mps 770 mmHg 88%
06:00 -11°C° 0 mm 4 mps 770 mmHg 89%
07:00 -11°C° 0 mm 4 mps 770 mmHg 88%
08:00 -11°C° 0 mm 4 mps 771 mmHg 87%
09:00 -11°C° 0 mm 4 mps 771 mmHg 86%
10:00 -10°C° 0 mm 4 mps 770 mmHg 85%
11:00 -10°C° 0 mm 4 mps 770 mmHg 84%
12:00 -10°C° 0 mm 5 mps 770 mmHg 82%
13:00 -9°C° 0 mm 4 mps 770 mmHg 83%
14:00 -10°C° 0 mm 4 mps 770 mmHg 84%
15:00 -10°C° 0 mm 4 mps 769 mmHg 85%
16:00 -10°C° 0 mm 4 mps 769 mmHg 86%
17:00 -11°C° 0 mm 4 mps 769 mmHg 87%
18:00 -11°C° 0 mm 4 mps 769 mmHg 88%
19:00 -12°C° 0 mm 4 mps 769 mmHg 88%
20:00 -12°C° 0 mm 4 mps 769 mmHg 88%
21:00 -12°C° 0 mm 4 mps 769 mmHg 88%
22:00 -12°C° 0 mm 4 mps 769 mmHg 87%
23:00 -12°C° 0 mm 4 mps 769 mmHg 87%

Day after tomorrow, 2 December, Wednesday

Time Temperature Precipitation Wind Pressure Humidity
00:00 -12°C° 0 mm 4 mps 769 mmHg 86%
01:00 -12°C° 0 mm 3 mps 769 mmHg 86%
02:00 -13°C° 0 mm 3 mps 769 mmHg 86%
03:00 -13°C° 0 mm 3 mps 769 mmHg 86%
04:00 -13°C° 0 mm 3 mps 769 mmHg 86%
05:00 -13°C° 0 mm 3 mps 769 mmHg 86%
06:00 -13°C° 0 mm 3 mps 768 mmHg 86%
07:00 -13°C° 0 mm 3 mps 768 mmHg 85%
08:00 -13°C° 0 mm 3 mps 769 mmHg 85%
09:00 -13°C° 0 mm 3 mps 769 mmHg 84%
10:00 -13°C° 0 mm 3 mps 769 mmHg 83%
11:00 -10°C° 0 mm 2 mps 769 mmHg 82%
12:00 -9°C° 0 mm 2 mps 769 mmHg 81%
13:00 -10°C° 0 mm 2 mps 769 mmHg 83%
14:00 -10°C° 0 mm 2 mps 768 mmHg 86%
15:00 -10°C° 0 mm 2 mps 768 mmHg 88%
16:00 -12°C° 0 mm 2 mps 768 mmHg 89%
17:00 -12°C° 0 mm 2 mps 768 mmHg 90%
18:00 -12°C° 0 mm 2 mps 768 mmHg 91%
19:00 -10°C° 0 mm 1 mps 768 mmHg 90%
20:00 -10°C° 0 mm 1 mps 768 mmHg 90%
21:00 -10°C° 0 mm 1 mps 769 mmHg 89%
22:00 -10°C° 0 mm 1 mps 769 mmHg 89%
23:00 -10°C° 0 mm 1 mps 769 mmHg 88%

3 December, Thursday

Time Temperature Precipitation Wind Pressure Humidity
00:00 -12°C° 0 mm 2 mps 769 mmHg 88%
01:00 -13°C° 0 mm 2 mps 769 mmHg 88%
02:00 -11°C° 0 mm 1 mps 769 mmHg 88%
03:00 -11°C° 0 mm 1 mps 769 mmHg 87%
04:00 -11°C° 0 mm 1 mps 769 mmHg 87%
05:00 -11°C° 0 mm 1 mps 769 mmHg 86%
06:00 -11°C° 0 mm 1 mps 769 mmHg 86%
07:00 -11°C° 0 mm 1 mps 769 mmHg 85%
08:00 -10°C° 0 mm 1 mps 769 mmHg 84%
09:00 -12°C° 0 mm 2 mps 769 mmHg 84%
10:00 -12°C° 0 mm 2 mps 769 mmHg 82%
11:00 -10°C° 0 mm 2 mps 769 mmHg 80%
12:00 -10°C° 0 mm 2 mps 769 mmHg 79%
13:00 -9°C° 0 mm 1 mps 769 mmHg 81%
14:00 -9°C° 0 mm 1 mps 769 mmHg 83%
15:00 -10°C° 0 mm 1 mps 769 mmHg 85%
16:00 -10°C° 0 mm 1 mps 769 mmHg 85%
17:00 -13°C° 0 mm 2 mps 769 mmHg 84%
18:00 -13°C° 0 mm 2 mps 769 mmHg 84%
19:00 -14°C° 0 mm 2 mps 769 mmHg 84%
20:00 -14°C° 0 mm 2 mps 769 mmHg 84%
21:00 -14°C° 0 mm 2 mps 769 mmHg 85%
22:00 -15°C° 0 mm 2 mps 769 mmHg 85%
23:00 -15°C° 0 mm 2 mps 769 mmHg 85%

4 December, Friday

Time Temperature Precipitation Wind Pressure Humidity
00:00 -15°C° 0 mm 2 mps 769 mmHg 85%
01:00 -15°C° 0 mm 2 mps 769 mmHg 85%
02:00 -15°C° 0 mm 2 mps 769 mmHg 85%
03:00 -15°C° 0 mm 2 mps 769 mmHg 86%
04:00 -15°C° 0 mm 2 mps 769 mmHg 86%
05:00 -15°C° 0 mm 2 mps 769 mmHg 87%
06:00 -15°C° 0 mm 2 mps 769 mmHg 88%
07:00 -15°C° 0 mm 2 mps 769 mmHg 87%
08:00 -15°C° 0 mm 2 mps 769 mmHg 86%
09:00 -15°C° 0 mm 2 mps 770 mmHg 85%
10:00 -14°C° 0 mm 2 mps 770 mmHg 83%
11:00 -13°C° 0 mm 2 mps 770 mmHg 80%
12:00 -12°C° 0 mm 2 mps 770 mmHg 77%
13:00 -12°C° 0 mm 2 mps 770 mmHg 81%
14:00 -13°C° 0 mm 2 mps 770 mmHg 84%
15:00 -13°C° 0 mm 2 mps 770 mmHg 88%
16:00 -14°C° 0 mm 2 mps 770 mmHg 88%
17:00 -14°C° 0 mm 2 mps 770 mmHg 88%
18:00 -14°C° 0 mm 2 mps 770 mmHg 89%
19:00 -15°C° 0 mm 2 mps 770 mmHg 89%
20:00 -15°C° 0 mm 2 mps 770 mmHg 89%
21:00 -15°C° 0 mm 2 mps 770 mmHg 89%
22:00 -15°C° 0 mm 2 mps 770 mmHg 89%
23:00 -15°C° 0 mm 2 mps 770 mmHg 89%

5 December, Saturday

Time Temperature Precipitation Wind Pressure Humidity
00:00 -15°C° 0 mm 2 mps 770 mmHg 89%
01:00 -15°C° 0 mm 2 mps 770 mmHg 89%
02:00 -15°C° 0 mm 2 mps 770 mmHg 89%
03:00 -15°C° 0 mm 2 mps 770 mmHg 89%
04:00 -15°C° 0 mm 2 mps 770 mmHg 89%
05:00 -13°C° 0 mm 1 mps 770 mmHg 88%
06:00 -13°C° 0 mm 1 mps 770 mmHg 88%
07:00 -13°C° 0 mm 1 mps 770 mmHg 87%
08:00 -13°C° 0 mm 1 mps 770 mmHg 86%
09:00 -13°C° 0 mm 1 mps 770 mmHg 85%
10:00 -12°C° 0 mm 1 mps 770 mmHg 83%
11:00 -11°C° 0 mm 1 mps 770 mmHg 80%
12:00 -10°C° 0 mm 1 mps 770 mmHg 77%
13:00 -10°C° 0 mm 1 mps 770 mmHg 80%
14:00 -11°C° 0 mm 1 mps 769 mmHg 83%
15:00 -12°C° 0 mm 1 mps 769 mmHg 86%
16:00 -12°C° 0 mm 1 mps 769 mmHg 86%
17:00 -12°C° 0 mm 1 mps 769 mmHg 85%
18:00 -13°C° 0 mm 1 mps 769 mmHg 85%
19:00 -13°C° 0 mm 1 mps 769 mmHg 85%
20:00 -13°C° 0 mm 1 mps 769 mmHg 84%
21:00 -13°C° 0 mm 1 mps 769 mmHg 84%
22:00 -13°C° 0 mm 1 mps 769 mmHg 83%
23:00 -13°C° 0 mm 1 mps 769 mmHg 83%
Show more